Regional Weather Roundup
Issued by NWS Cleveland, OH

Home | Current Version | Previous Version | Graphics & Text | Print | Product List | Glossary On
Versions: 1 2 3 4 5 6 7 8 9 10 11 12 13 14 15 16 17 18 19 20 21 22 23 24 25 26 27 28 29 30 31 32 33 34 35 36 37 38 39 40 41 42 43 44 45 46 47 48 49 50
282
ASUS41 KCLE 251800
RWRCLE
OHIO REGIONAL WEATHER ROUNDUP
NATIONAL WEATHER SERVICE WILMINGTON, OH
200 PM EDT SAT MAR 25 2017

NOTE: "FAIR" INDICATES FEW OR NO CLOUDS BELOW 12,000 FEET WITH NO
SIGNIFICANT WEATHER AND/OR OBSTRUCTIONS TO VISIBILITY.

OHZ001>008-015>018-024>027-034-035-043-044-251900-
   NORTHWEST OHIO

CITY           SKY/WX    TMP DP  RH WIND       PRES   REMARKS
DEFIANCE       FAIR      56  45  66 E18       30.11F
FINDLAY        FAIR      58  45  62 NE15      30.11F
TOLEDO EXPRESS PTSUNNY   47  40  76 E23       30.17F
TOLEDO EXEC    CLOUDY    45  40  82 E14G25    30.20S
LIMA           FAIR      71  53  52 SW13      30.09F
$$

OHZ009>014-019>023-028>033-038-089-251900-
   NORTHEAST OHIO

CITY           SKY/WX    TMP DP  RH WIND       PRES   REMARKS
CLE-HOPKINS    CLOUDY    49  39  68 NE7       30.22S
CLE-LAKEFRONT  CLOUDY    45  40  82 N12       30.19S
CUY CO. ARPT   CLOUDY    50  43  76 E8        30.20S
LORAIN-ELYRIA  PTSUNNY   46  39  76 NE14      30.19F
ASHTABULA      CLOUDY    41  37  86 NE8       30.23F
AKRON-CANTON   CLOUDY    71  51  49 NW7       30.16F
WOOSTER        NOT AVBL
MANSFIELD      FAIR      70  52  52 W12       30.14F
YOUNGSTOWN     CLOUDY    67  51  56 N10       30.17S
$$

OHZ042-051>053-060>062-070>072-077>081-251900-
  SOUTHWEST OHIO

CITY           SKY/WX    TMP DP  RH WIND       PRES   REMARKS
CINC-COVINGTON PTSUNNY   74  52  46 S15       30.08F
CINC-LUNKEN    FAIR      73  54  51 S15       30.09F
HAMILTON       FAIR      75  52  44 S8G18     30.09F
DAYTON         NOT AVBL
WRIGHT-PAT AFB CLOUDY    71  50  48 S13G18    30.10S
DAYTON GENERAL FAIR      71  51  49 SW10      30.09F
WILMINGTON     FAIR      69  51  52 S14       30.11F
$$

OHZ036-037-039>041-045>050-054>059-063>069-073>076-082>088-251900-
  CENTRAL AND SOUTHEAST OHIO

CITY           SKY/WX    TMP DP  RH WIND       PRES   REMARKS
COLUMBUS       CLOUDY    72  51  47 SW9       30.13F
OSU AIRPORT    FAIR      72  52  49 SW12      30.12F
BOLTON FIELD   NOT AVBL
RICKENBACK AFB NOT AVBL
NEWARK         FAIR      72  52  49 W12       30.14S
MARION         CLOUDY    74  51  44 SW15G21   30.13F
LANCASTER      CLOUDY    74  51  44 SW6       30.15F
ZANESVILLE     FAIR      74  50  42 W10       30.15F
NEW PHILLY     CLOUDY    71  51  49 W6        30.16F
$$




USA.gov is the U.S. government's official web portal to all federal, state and local government web resources and services.